Miscellaneous Local Product
Issued by NWS North Platte, NE

Home | Current Version | Previous Version | Text Only | Print | Product List | Glossary On
Versions: 1 2 3 4 5 6 7 8 9 10 11 12 13 14 15 16 17 18 19 20 21 22 23 24 25 26 27 28 29 30 31 32 33 34 35 36 37 38 39 40 41 42 43 44 45 46 47 48 49 50
198
AXUS43 KLBF 112010
MISLBF


WESTERN AND NORTH CENTRAL NEBRASKA HOURLY WEATHER ROUNDUP
NATIONAL WEATHER SERVICE NORTH PLATTE NE
200 PM CST THU FEB 11 2016

NOTE: "FAIR" INDICATES FEW OR NO CLOUDS BELOW 12,000 FEET WITH NO
SIGNIFICANT WEATHER AND/OR OBSTRUCTIONS TO VISIBILITY.

NOTE: STATIONS NOT REPORTING VARIABLES SUCH AS SKY/WEATHER OR
PRESSURE ARE PROVIDED BY THE NEBRASKA DEPARTMENT OF
ROADS...RAWS...AND APRS NETWORKS...AND ARE NOT UNDER
NATIONAL WEATHER SERVICE QUALITY CONTROL.

...OBSERVATIONS IN AND NEAR THE EASTERN PANHANDLE OF NEBRASKA...

CITY           SKY/WX    TMP DP  RH WIND       PRES   REMARKS
PINE RIDGE     SUNNY     58  29  33 NW9       30.02F
CHADRON        MOSUNNY   57  29  34 NW23G36   30.06R
ALLIANCE       CLOUDY    50  33  52 NW13      30.06F
SIDNEY         CLOUDY    53  31  42 NW12      30.11S
CRESCENT LAKE    N/A     57  30  35 NW18G25     N/A
BIG SPRINGS      N/A     52  37  56 W12         N/A
$$

...OBSERVATIONS IN NORTH CENTRAL NEBRASKA...

CITY           SKY/WX    TMP DP  RH WIND       PRES   REMARKS
VALENTINE      SUNNY     51  32  48 NW20G26   29.97F
THEDFORD       SUNNY     58  32  37 NW10G17   30.00F
AINSWORTH      SUNNY     48  32  54 W12       29.98F
O`NEILL        CLOUDY    29  28  96 S9        30.06F FOG     WCI  21
ORD            CLOUDY    31  28  89 S14       30.06F WCI  21
BROKEN BOW     CLOUDY    34  30  85 S13       30.05F WCI  25
VALENTINE NWR    N/A     49  36  60 W9G16       N/A
BUTTE            N/A     26  25  94 SE14        N/A  WCI  14
HALSEY           N/A     46  32  58 SW5         N/A
CHAMBERS         N/A     30  27  90 S9          N/A  WCI  22
EWING            N/A     26  24  94 S7          N/A  WCI  18
$$

...OBSERVATIONS IN SOUTHWEST NEBRASKA AND FAR NORTHEAST COLORADO...

CITY           SKY/WX    TMP DP  RH WIND       PRES   REMARKS
HOLYOKE        FAIR      55  32  41 NW15G21   30.08S
IMPERIAL       SUNNY     51  30  44 NW12      30.06F
OGALLALA       SUNNY     52  33  48 SW8       30.05S
NORTH PLATTE   MOSUNNY   43  31  62 SW7       30.04F
MCCOOK         SUNNY     42  33  70 VRB5      30.06F
LEXINGTON      CLOUDY    33  29  85 SW13      30.08F WCI  24
PAXTON           N/A     50  39  66 W5          N/A
STAPLETON        N/A     43  35  72 CALM        N/A
GOTHENBURG       N/A     36  30  78 SW6         N/A  WCI  31
CALLAWAY         N/A     37  32  81 SW8         N/A  WCI  31
$$

...OBSERVATIONS IN CENTRAL LINCOLN COUNTY AREA...

CITY           SKY/WX    TMP DP  RH WIND       PRES   REMARKS
N.P. AIRPORT   MOSUNNY   43  31  62 SW7       30.04F
N.P. DOWNTOWN    N/A     46  35  65 SW3         N/A
N.P. SOUTHEAST   N/A     46  34  63 SW3         N/A
N.P. HILLCREST   N/A     43  35  72 SW3         N/A
$$

...SOME OBSERVATIONS FROM AROUND THE REGION...

CITY           SKY/WX    TMP DP  RH WIND       PRES   REMARKS
DENVER         CLOUDY    63  23  21 NE9       30.11F
LARAMIE        CLOUDY    50  25  37 W17G26    30.20F
CHEYENNE       CLOUDY    53  24  32 NW23G38   30.12F
SCOTTSBLUFF    CLOUDY    58  28  32 NW22      30.09F
RAPID CITY     SUNNY     57  27  31 NW38G48   29.99S
BISMARCK       LGT SNOW  26  18  71 NE5       30.14S WCI  20
PIERRE         CLOUDY    29  24  82 E9        30.05F WCI  20
WINNER         CLOUDY    37  29  72 S8        30.01F WCI  31
SIOUX FALLS    LGT SNOW  17  12  80 S9        30.17F VSB 3/4 WCI   6
OMAHA          LGT SNOW  22  15  75 SE8       30.21F WCI  12
GRAND ISLAND   CLOUDY    28  24  85 S13       30.13F FOG     WCI  17
KANSAS CITY    CLOUDY    34  21  59 E7        30.23F WCI  28
WICHITA        PTSUNNY   44  24  45 CALM      30.18F
OKLAHOMA CITY  MOSUNNY   60  31  33 NE10      30.13F
LIBERAL        MOSUNNY   57  32  38 SW10      30.15F
HAYS           SUNNY     41  25  52 S8        30.14F
GOODLAND       SUNNY     60  29  30 W16       30.08F
$$




USA.gov is the U.S. government's official web portal to all federal, state and local government web resources and services.